Torna al catalogo

STARLINK-3872

AttivoComunicazioniVLEO
NORAD 52453·PAYLOAD·🇺🇸 United States

Lanciato May 6, 2022 da Cape Canaveral Space Force Station

Loading…

Prossimi Passaggi (prossime 24 ore)

TLE

AggiornatoSource: CelesTrak SupGP

Epoca: Sep 14, 2026, 13:02 UTC

1 52453C 22049C   26257.54354167  .00021987  00000+0  62905-3 0  2571
2 52453  53.1602 297.4471 0001273  76.4855  93.8025 15.35388924    16

Traccia STARLINK-3872 in tempo reale con AllMySat

Download on the App Store